Miscellaneous Local Product
Issued by NWS Hastings, NE

Home | Current Version | Previous Version | Graphics & Text | Print | Product List | Glossary On
Versions: 1 2 3 4 5 6 7 8 9 10 11 12 13 14 15 16 17 18 19 20 21 22 23 24 25 26 27 28 29 30 31 32 33 34 35 36 37 38 39 40 41 42 43 44 45 46 47 48 49 50
230
AXUS43 KGID 062002
MISGRI

GID CWA HOURLY WEATHER ROUNDUP
NATIONAL WEATHER SERVICE HASTINGS NE
200 PM CST SAT FEB 06 2016

NOTE: "FAIR" INDICATES FEW OR NO CLOUDS BELOW 12,000 FEET WITH NO
SIGNIFICANT WEATHER AND/OR OBSTRUCTIONS TO VISIBILITY.

...SOUTH CENTRAL NEBRASKA...

CITY           SKY/WX    TMP DP  RH WIND       PRES   REMARKS
GRAND ISLAND   SUNNY     36  23  59 SW17      30.08F WCI  26
HASTINGS       SUNNY     32  21  64 SW13G20   30.11F WCI  22
ORD            CLOUDY    38  26  62 SW13      30.02F WCI  30
YORK           SUNNY     32  25  74 SW17      30.12F WCI  21
AURORA         SUNNY     33  23  67 SW16      30.10F WCI  23
LEXINGTON      CLOUDY    38  24  55 W10       30.11F WCI  31
HOLDREGE       SUNNY     31  21  66 SW14G20   30.12F WCI  21
HEBRON         SUNNY     34  25  69 SW12      30.19F WCI  25

...NEBRASKA PANHANDLE...

CITY           SKY/WX    TMP DP  RH WIND       PRES   REMARKS
CHADRON        CLOUDY    44  28  53 W13       29.97F
ALLIANCE       CLOUDY    36  27  69 W14       30.01F WCI  27
SCOTTSBLUFF    CLOUDY    41  24  51 W24G33    30.05F
SIDNEY         CLOUDY    40  28  62 W20       30.07F WCI  30

...WESTERN AND NORTH CENTRAL NEBRASKA...

CITY           SKY/WX    TMP DP  RH WIND       PRES   REMARKS
VALENTINE      MOSUNNY   43  27  53 W15G28    29.94F
AINSWORTH      CLOUDY    48  28  46 W12       29.96F
ONEILL         CLOUDY    41  28  60 SW10      29.98F
BROKEN BOW     MOSUNNY   37  25  61 W17       30.03F WCI  27
IMPERIAL       CLOUDY    36  22  56 W12       30.10F WCI  28
NORTH PLATTE   CLOUDY    36  22  56 W16       30.07F WCI  26
MCCOOK         CLOUDY    36  19  50 SW12      30.13F WCI  28

...EASTERN NEBRASKA...

CITY           SKY/WX    TMP DP  RH WIND       PRES   REMARKS
NORFOLK        CLOUDY    39  24  55 SW8       30.02F WCI  33
SO SIOUX CITY  MOSUNNY   38  26  62 S14       30.04F WCI  30
TEKAMAH        SUNNY     34  28  79 S15       30.09F WCI  24
COLUMBUS       CLOUDY    39  21  48 SW18      30.08F WCI  30
ALBION         SUNNY     35  25  68 S8        30.05F WCI  28
OMAHA EPPLEY   MOSUNNY   40  26  57 S15       30.13F WCI  32
OFFUTT AFB     SUNNY     39  27  61 S13       30.13F WCI  31
MILLARD        SUNNY     40  27  59 S8        30.14F WCI  35
LINCOLN        SUNNY     37  26  64 SW16      30.15F WCI  28
NEBRASKA CITY  SUNNY     38  30  72 SW14      30.17F WCI  30
BEATRICE       SUNNY     39  30  68 SW14      30.19F WCI  31
FALLS CITY     SUNNY     47  31  53 SW14      30.19F

...NORTHERN KANSAS...

CITY           SKY/WX    TMP DP  RH WIND       PRES   REMARKS
GOODLAND       CLOUDY    41  19  41 SW21      30.15F
HILL CITY      CLOUDY    42  24  49 SW15      30.18F
NORTON         CLEAR     36  21  55 SW12      30.14F WCI  27
PHILLIPSBURG   SUNNY     37  25  60 CALM      30.17F
BELOIT         SUNNY     45  27  49 SW13      30.21F
HAYS           SUNNY     39  21  48 SW12      30.21F WCI  32
RUSSELL        SUNNY     39  26  59 SW14      30.21F WCI  31
CONCORDIA      SUNNY     46  27  47 SW15      30.20F
SALINA         SUNNY     51  26  37 SW15      30.24F
TOPEKA         SUNNY     50  28  42 W9        30.24F



USA.gov is the U.S. government's official web portal to all federal, state and local government web resources and services.